Погода в Думиничах

Россия / Калужская область     53°55′01″N   35°05′53″E
темп.,
°C
ветер,
м/с
пор.,
м/с
влажн.,
%
обл.,
%
осадки,
мм/ч
давл.,
гПа
погр.,
м
17 июня, чт
чт1700:00+13св24810 0.0 101960
03:00+12св36804 0.0 102193
06:00+12св37800 0.0 1022152
09:00+18св35620 0.0 1023492
12:00+22всв45485 0.0 10241381
15:00+22св444865 0.0 10241503
18:00+22св35590 0.0 10241115
21:00+16в22840 0.0 102524
18 июня, пт
пт1800:00+13в22875 0.0 102619
03:00+12всв22884 0.0 102726
06:00+13всв25820 0.0 1027114
09:00+19в35600 0.0 1027536
12:00+22в34484 0.0 10271338
15:00+24в344721 0.0 10261497
18:00+22в346144 0.0 10261060
21:00+17вюв23844 0.0 102643
19 июня, сб
сб1900:00+14юв22941 0.0 102732
03:00+13юв22950 0.0 102726
06:00+14юв23910 0.0 102898
09:00+20юв34630 0.0 1027656
12:00+24вюв34450 0.0 10261351
15:00+25вюв34430 0.0 10241484
18:00+24юв34590 0.0 1024916
21:00+17юв34854 0.0 102462
20 июня, вс
вс2000:00+15ююв22945 0.0 102539
03:00+14юв22950 0.0 102522
06:00+16юв23900 0.0 102592
09:00+21вюв23650 0.0 1024520
12:00+25юв34525 0.0 10231148
15:00+27юв23486 0.0 10221386
18:00+26вюв346042 0.0 1021625
21:00+19юв36859 0.0 1021104
21 июня, пн
пн2100:00+16ююв229381 0.0 102227
03:00+15юв229477 0.0 102217
06:00+17в238987 0.0 1022100
09:00+23вюв356655 0.0 1022507
12:00+27в455072 0.0 1020885
15:00+26вюв445691 0.0 1020853
18:00+26вюв356559 0.0 1020712
21:00+21в34905 0.0 102058